Location: Krasnoyarskiy Pitomnik
(51.1333°N, 71.6167°E)
Time: 08:58:52
(UTC+00:00)

Cosmos 2344 - Pass Details

Date: 22 October 2021
Orbit: 1233 x 3009 km, 63.3° (Epoch: 06 December)

Event Time Altitude Azimuth Distance (km) Brightness Sun altitude
Rises 12:24:30 0° 307° (NW) 4,301 7.0 -3.6°
Reaches altitude 10° 12:27:10 10° 313° (NW) 3,428 6.4 -4.0°
Maximum altitude 12:35:17 53° 30° (NNE) 1,927 4.3 -5.2°
Drops below altitude 10° 12:46:10 10° 106° (ESE) 4,542 5.9 -6.9°
Enters shadow 12:49:59 - 111° (ESE) 5,717 6.4 -7.5°
